Location: ?ejkovice
(49.0137°N, 14.3821°E)
Time: 16:57:42
(UTC+00:00)

SL-4 R/B - Pass Details

Date: 23 May 2024
Orbit: 412 x 601 km, 51.6° (Epoch: 13 June)

Event Time Altitude Azimuth Distance (km) Brightness Sun altitude
Exits shadow 01:11:50 10° 159° (SSE) 1,906 4.4 -14.3°
Reaches altitude 10° 01:11:59 10° 157° (SSE) 1,882 4.4 -14.3°
Maximum altitude 01:13:54 13° 130° (SE) 1,725 4.5 -14.2°
Drops below altitude 10° 01:15:51 10° 104° (ESE) 1,921 5.0 -14.0°
Sets 01:19:20 0° 76° (ENE) 2,849 6.4 -13.7°
